AO-07 1 07530U 74089B 17355.85149668 -.00000035 00000-0 56807-4 0 9990 2 07530 101.6608 321.0273 0012029 320.1615 93.5432 12.53630325972373 UO-11 1 14781U 84021B 17355.61423421 .00000098 00000-0 18235-4 0 9990 2 14781 97.6734 34.1692 0007332 312.2515 47.8076 14.82967067818120 LO-19 1 20442U 90005G 17354.79947288 .00000013 00000-0 20918-4 0 9998 2 20442 98.5938 289.5535 0011090 321.4984 38.5408 14.32881894458345 HUBBLE 1 20580U 90037B 17355.31517361 .00000506 00000-0 20127-4 0 9999 2 20580 28.4684 210.8608 0002759 29.4367 294.7158 15.08948540318572 MET-2/21 1 22782U 93055A 17354.85589887 -.00000014 00000-0 -26134-4 0 9998 2 22782 82.5495 235.4407 0021170 267.6807 141.1143 13.83805976227510 AO-27 1 22825U 93061C 17355.36079539 .00000003 00000-0 18887-4 0 9990 2 22825 98.8392 323.4896 0009026 139.8092 220.3758 14.30017065264156 IO-26 1 22826U 93061D 17354.57929635 -.00000004 00000-0 15910-4 0 9990 2 22826 098.8332 322.7560 0009648 132.8897 227.3096 14.30347338263977 FO-29 1 24278U 96046B 17355.61395147 -.00000028 00000-0 87960-5 0 9991 2 24278 98.5329 213.6654 0349797 211.4285 146.5527 13.53080391 54226 NOAA-15 1 25338U 98030A 17355.51190294 .00000021 00000-0 27661-4 0 9992 2 25338 98.7773 6.7542 0011003 28.2073 331.9700 14.25831669 19700 GO-32 1 25397U 98043D 17355.35811911 -.00000007 00000-0 16124-4 0 9996 2 25397 98.6316 293.9196 0001695 136.1196 224.0117 14.23636304 10424 ISS 1 25544U 98067A 17355.95008072 .00001539 00000-0 30399-4 0 9998 2 25544 51.6400 182.2926 0002673 265.0076 244.1320 15.54201473 90953 NO-44 1 26931U 01043C 17355.34730173 -.00000017 00000-0 25434-4 0 9999 2 26931 67.0517 328.2861 0005233 271.0404 89.0098 14.30487964847111 SO-50 1 27607U 02058C 17355.83092500 .00000046 00000-0 27203-4 0 9993 2 27607 64.5559 272.1201 0043496 14.1290 346.1018 14.75404528806799 CO-55 1 27844U 03031E 17355.58516335 .00000058 00000-0 45823-4 0 9998 2 27844 98.6884 1.8550 0010137 159.9839 200.1738 14.22083616750955 CO-57 1 27848U 03031J 17355.00264826 .00000043 00000-0 39399-4 0 9999 2 27848 98.6975 1.6157 0009791 171.1531 188.9821 14.21691856750743 RS-22 1 27939U 03042A 17355.88200844 .00000100 00000-0 26479-4 0 9997 2 27939 97.9642 134.8929 0012759 356.8721 154.3784 14.66641673760820 NOAA-18 1 28654U 05018A 17355.50519945 .00000023 00000-0 37739-4 0 9996 2 28654 99.1664 22.1519 0013445 265.8145 94.1490 14.12361352648698 CO-58 1 28895U 05043F 17355.37913654 .00000164 00000-0 40424-4 0 9992 2 28895 97.8841 149.3068 0015529 271.5314 88.4110 14.63488382647867 Falconsat-3 1 30776U 07006E 17355.21635428 .00003170 00000-0 96629-4 0 9995 2 30776 35.4371 318.9656 0004079 232.4374 127.5982 15.33633743596979 CO-65 1 32785U 08021C 17355.19191143 .00000281 00000-0 36235-4 0 9990 2 32785 97.5548 10.8099 0011615 268.5552 91.4335 14.88031175522708 AAUSAT2 1 32788U 08021F 17355.63224100 .00000940 00000-0 92833-4 0 9990 2 32788 97.5400 24.3780 0011034 217.4277 142.6177 14.94159430523668 DO-64 1 32789U 08021G 17354.69406799 .00001846 00000-0 13204-3 0 9992 2 32789 97.5374 48.8386 0012752 180.1944 179.9280 15.05606300524921 CO-66 1 32791U 08021J 17355.03148148 .00000389 00000-0 45319-4 0 9999 2 32791 97.5482 15.5732 0012056 249.2368 110.7559 14.90424003522970 RS-30 1 32953U 08025A 17355.81250701 .00000020 00000-0 72950-4 0 9991 2 32953 82.5026 122.9940 0018814 234.4106 125.5221 12.43080639434731 PRISM 1 33493U 09002B 17355.73369843 .00001447 00000-0 13436-3 0 9993 2 33493 98.1475 245.8506 0015071 176.4877 183.6457 14.96015342483815 NOAA-19 1 33591U 09005A 17355.52561554 .00000064 00000-0 59906-4 0 9992 2 33591 99.1193 325.2514 0014899 104.5966 255.6858 14.12239130457101 TISAT-1 1 36799U 10035E 17355.30887262 .00000592 00000-0 66438-4 0 9997 2 36799 98.0832 122.1180 0013578 74.8726 285.3993 14.90644206403652 JUGNU 1 37839U 11058B 17354.50235420 .00000299 00000-0 17545-4 0 9992 2 37839 19.9626 40.7458 0019202 76.9977 54.7392 14.12604503320070 SRMSAT 1 37841U 11058D 17354.62081545 .00000294 00000-0 16320-4 0 9990 2 37841 019.9723 085.5470 0011878 330.0292 169.8169 14.10594825319540 AO-71 1 37854U 11061E 17355.79762825 .00001654 00000-0 94577-4 0 9995 2 37854 101.7069 324.9171 0164945 239.3363 119.1501 15.04953334335149 HRBE 1 37855U 11061F 17355.80353750 .00001653 00000-0 92919-4 0 9998 2 37855 101.7188 322.6021 0178009 247.0072 111.2275 15.03921499334988 ALMASAT-1 1 38078U 12006B 17355.79523150 .00033693 39315-5 33476-3 0 9994 2 38078 69.4348 344.2283 0273697 12.0415 52.4139 15.31467714313410 HORYU-2 1 38340U 12025D 17355.60639064 .00000246 00000-0 44306-4 0 9996 2 38340 98.3752 6.1453 0012639 59.3838 300.8615 14.75469719300920 RS-40 1 38735U 12041C 17354.84906273 .00000023 00000-0 99210-4 0 9993 2 38735 82.4750 207.8003 0016895 344.5203 15.5357 12.42575990244879 BEESAT-3 1 39134U 13015E 17355.36314349 .00001612 00000-0 86359-4 0 9999 2 39134 64.8659 341.9090 0029810 234.6965 125.1373 15.18642856257890 BEESAT-2 1 39136U 13015G 17355.00733383 .00001484 00000-0 86838-4 0 9994 2 39136 64.8699 356.4637 0032558 256.7530 102.9963 15.15737964257586 ZACUBE-1 1 39417U 13066B 17354.86682102 .00000284 00000-0 42215-4 0 9995 2 39417 97.6078 27.8355 0059642 20.5406 339.8185 14.80844704220401 TRITON-1 1 39427U 13066M 17355.62744204 .00000239 00000-0 45843-4 0 9993 2 39427 97.6361 358.4058 0115552 108.0675 253.3160 14.67583755218538 GOMX-1 1 39430U 13066Q 17355.75154242 .00000174 00000-0 40444-4 0 9998 2 39430 97.6788 340.6253 0151876 170.2129 190.2090 14.58992325217288 LO-74 1 39440U 13066AA 17355.61654831 .00000295 00000-0 48101-4 0 9995 2 39440 97.6127 16.3092 0081731 52.8304 308.0334 14.75582626219736 AO-73 1 39444U 13066AE 17355.09026267 .00000356 00000-0 50443-4 0 9997 2 39444 97.6092 29.3437 0058654 15.9142 344.3897 14.81604872219288 SPROUT 1 39770U 14029E 17355.84594568 .00000659 00000-0 80469-4 0 9993 2 39770 97.8764 93.4646 0010586 74.4662 285.7734 14.86593669194018 DUCHIFAT-1 1 40021U 14033M 17355.19148494 .00000602 00000-0 68073-4 0 9995 2 40021 97.9170 268.5920 0014145 48.8196 311.4239 14.90142841190440 NANOSATCBR1 1 40024U 14033Q 17355.75050458 .00000422 00000-0 50351-4 0 9992 2 40024 97.9117 267.7283 0013445 49.1195 311.1184 14.89431330190462 EO-79 1 40025U 14033R 17355.22731544 .00000382 00000-0 46965-4 0 9998 2 40025 97.9087 265.9547 0013707 53.9778 306.2707 14.88598704190311 DTUSAT-2 1 40030U 14033W 17354.80971838 .00000351 00000-0 44096-4 0 9998 2 40030 97.9043 264.4499 0013105 50.7224 309.5152 14.88212731190203 EO-80 1 40032U 14033Y 17355.73413287 .00000340 00000-0 42955-4 0 9992 2 40032 97.9051 265.3762 0013014 48.3879 311.8450 14.88149216190333 ANTELSAT 1 40034U 14033AA 17355.74174917 .00000311 00000-0 53707-4 0 9994 2 40034 97.8339 233.5903 0060061 50.2533 310.3946 14.73831491188552 VELOX-1 1 40057U 14034E 17355.79188984 .00000378 00000-0 60877-4 0 9993 2 40057 98.1961 98.9301 0011185 169.9088 190.2352 14.77303959187454 DAURIA DX 1 1 40071U 14037C 17355.81316618 .00000149 00000-0 26580-4 0 9991 2 40071 98.3544 114.5386 0008760 161.2057 198.9489 14.81103959186743 UKUBE-1 1 40074U 14037F 17355.72278908 .00000339 00000-0 48201-4 0 9998 2 40074 98.3652 119.3085 0005263 152.1488 208.0019 14.83681264186987 HODOYOSHI-1 1 40299U 14070B 17355.78441593 .00000822 00000-0 38243-4 0 9994 2 40299 97.3928 75.6020 0013880 147.4232 5.4653 15.22656237173482 CHUBUSAT-1 1 40300U 14070C 17355.78748124 .00000994 00000-0 47306-4 0 9997 2 40300 97.3827 72.1511 0020784 159.8174 350.7710 15.21302176173303 QSAT-EOS 1 40301U 14070D 17355.77755295 .00002433 00000-0 10195-3 0 9999 2 40301 97.3770 72.7664 0027360 154.2746 0.8129 15.24152454173398 FIREBIRD FU3 1 40377U 15003B 17355.67281333 .00001760 00000-0 76304-4 0 9992 2 40377 99.1067 217.0983 0134186 100.5289 261.1089 15.16489552159416 FIREBIRD FU4 1 40378U 15003C 17355.86088504 .00001794 00000-0 77614-4 0 9991 2 40378 99.1070 217.3728 0134406 99.7979 261.8455 15.16503273159445 GRIFEX 1 40379U 15003D 17355.56800200 .00001494 00000-0 69488-4 0 9991 2 40379 99.1110 213.9937 0140839 110.7618 250.8764 15.13796913159225 NO-84 1 40654U 15025D 17355.35370180 .00007526 00000-0 13194-3 0 01724 2 40654 054.9913 117.8072 0168636 019.2169 341.5103 15.37567332028465 NO-83 1 40655U 15025E 17355.26189263 .00015900 00000-0 19959-3 0 02018 2 40655 054.9784 079.4731 0128922 041.9516 319.1095 15.50582739028621 DEORBITSAIL 1 40719U 15032E 17355.74899892 .00000477 00000-0 76166-4 0 9997 2 40719 97.9619 246.9611 0015190 259.8255 100.1241 14.76281296131993 NUDT-PHONESAT 1 40900U 15049B 17355.86716404 .00002452 00000-0 11505-3 0 9997 2 40900 97.4423 1.2602 0012155 292.8008 67.1943 15.20552749124960 XW-2A 1 40903U 15049E 17355.67533553 .00002245 00000-0 58691-4 0 9999 2 40903 97.4043 23.6316 0013186 315.7702 44.2489 15.39791235126487 XW-2C 1 40906U 15049H 17355.85368363 .00000838 00000-0 48415-4 0 9996 2 40906 97.4572 357.6645 0013577 286.5935 73.3806 15.14936324124644 XW-2D 1 40907U 15049J 17355.82270257 .00000901 00000-0 51597-4 0 9994 2 40907 97.4543 357.3564 0012917 284.5903 75.3896 15.15068407124640 LILACSAT-2 1 40908U 15049K 17355.82025882 .00000499 00000-0 31574-4 0 9992 2 40908 97.4650 356.9327 0014519 284.3336 75.6283 15.13359205124549 XW-2F 1 40910U 15049M 17355.77154429 .00001327 00000-0 72153-4 0 9998 2 40910 97.4555 358.3036 0013664 280.9978 78.9717 15.16136924124567 XW-2B 1 40911U 15049N 17355.83406235 .00000867 00000-0 49878-4 0 9997 2 40911 97.4583 357.8334 0012828 285.0650 74.9163 15.15019507124543 DCBB 1 40912U 15049P 17355.83670317 .00001590 00000-0 80712-4 0 9998 2 40912 97.4509 0.7340 0013611 269.8006 214.5516 15.18308321124754 TW-1C 1 40926U 15051B 17355.78320076 .00009740 00000-0 19927-3 0 9998 2 40926 97.2072 34.0705 0009993 197.4512 253.2014 15.46269678125872 TW-1A 1 40928U 15051D 17355.73858461 .00003326 00000-0 92082-4 0 9997 2 40928 97.2065 28.1420 0010557 238.9551 214.0756 15.37635327125502 IO-86 1 40931U 15052B 17354.33422208 -.00006250 00000-0 -96397-3 0 9996 2 40931 6.0007 345.3729 0014383 355.4964 4.5526 14.76543998120528 LQSat 1 40958U 15057A 17355.73563376 .00000048 00000-0 15241-4 0 9994 2 40958 97.9617 67.6043 0017891 181.2423 178.8739 14.73007916118720 AO-85 1 40967U 15058D 17355.37082457 .00000187 00000-0 39672-4 0 01867 2 40967 064.7778 010.9984 0186924 010.8759 349.6299 14.75595185027414 ATHENOXAT-1 1 41168U 15077C 17355.75742940 .00002437 00000-0 98361-4 0 9996 2 41168 14.9856 238.4484 0011978 98.1589 306.2261 15.12314969111479 ChubuSat-2 1 41338U 16012B 17355.16662110 .00000407 00000-0 25221-4 0 9990 2 41338 31.0047 4.6155 0013872 110.6282 249.5842 14.99891891101081 ChubuSat-3 1 41339U 16012C 17355.66876131 .00000343 00000-0 20051-4 0 9991 2 41339 31.0104 0.2802 0013616 121.8438 238.3532 15.00085466101145 Horyu-4 1 41340U 16012D 17355.35563179 .00000580 00000-0 37812-4 0 9990 2 41340 31.0066 358.4141 0014172 129.8597 230.3287 15.00839226101151 OUFTI-1 1 41458U 16025C 17355.84520319 .00001596 00000-0 87658-4 0 9998 2 41458 98.1628 44.0514 0171919 22.6399 338.2261 15.04076001 90777 e-st@r-II 1 41459U 16025D 17355.69005258 .00002337 00000-0 12653-3 0 9998 2 41459 98.1623 43.7903 0172853 23.3827 337.5121 15.03848865 90741 AAUSAT4 1 41460U 16025E 17355.69142189 .00002860 00000-0 15299-3 0 9995 2 41460 98.1566 44.0486 0164511 20.7096 340.0679 15.05060981 90788 LO-87 1 41557U 16033B 17355.77254862 .00001582 00000-0 60808-4 0 9999 2 41557 97.4506 75.2413 0015452 67.9275 292.3604 15.27843450 87066 NuSat2 1 41558U 16033C 17355.76080982 .00001655 00000-0 63796-4 0 9999 2 41558 97.4534 75.3036 0014883 66.9492 293.3314 15.27673535 87050 Lapan A3 1 41603U 16040E 17355.74647884 .00000204 00000-0 12793-4 0 9996 2 41603 97.4384 55.2398 0014530 134.4679 13.7657 15.19485631 83137 Swayam 1 41607U 16040J 17355.73519196 .00001862 00000-0 85247-4 0 9998 2 41607 97.4381 56.0194 0015137 136.2003 224.0436 15.21664387 83116 Pratham 1 41783U 16059A 17355.78176507 .00000071 00000-0 23321-4 0 9999 2 41783 98.1438 54.9738 0032406 293.2986 66.4806 14.62888804 66021 AlSat 1N 1 41789U 16059G 17355.68282065 .00000133 00000-0 34529-4 0 9992 2 41789 98.1451 55.7446 0027083 287.1201 72.7039 14.64112629 66041 ScatSat 1 41790U 16059H 17355.72791093 .00000021 00000-0 16625-4 0 9998 2 41790 98.2861 41.4922 0017069 276.6299 83.2953 14.50854136 65450 TY-1 1 41844U 16066D 17355.81267713 .00001848 00000-0 82088-4 0 9997 2 41844 97.4047 0.2104 0014426 305.5607 173.3810 15.22723954 61880 CAS-2T 1 41845U 16066E 17355.66524944 .00000181 00000-0 37245-4 0 9997 2 41845 98.7670 15.6885 0367355 51.8575 311.5123 14.37842653 58433 Pegasus-1 1 41846U 16066F 17354.83375395 .00000399 00000-0 70474-4 0 9992 2 41846 098.7700 014.4903 0369520 056.2264 307.3546 14.37218010058285 STARS-C 1 41895U 98067KR 17355.82381752 .00099429 00000-0 46359-3 0 9997 2 41895 51.6325 156.8734 0004230 258.7707 101.2820 15.82520110 57450 TO-89 1 41932U 98067KU 17355.40882861 .00018554 00000-0 17607-3 0 9994 2 41932 51.6368 170.0160 0004575 232.6553 127.4026 15.66944723 52817 AOBA-V3LOX3 1 41935U 98067KX 17354.86662212 .00025278 00000-0 22528-3 0 9991 2 41935 51.6360 171.6280 0004090 230.2668 129.7968 15.68281447 52847 OSNSAT 1 41939U 98067KZ 17355.71226205 .00283182 43296-4 64715-3 0 9990 2 41939 51.6278 150.0135 0006761 272.4672 87.5562 15.96861373 52450 EO-88 1 42017U 17008BX 17354.84992485 .00001951 00000-0 83888-4 0 9994 2 42017 97.4727 55.7993 0004958 291.5248 68.5460 15.23860173 46901 HAVELSAT 1 42700U 98067LH 17355.70816511 .00017606 00000-0 19479-3 0 9996 2 42700 51.6363 176.4934 0003983 292.9605 67.0969 15.63098061 34192 SOMP2 1 42701U 98067LJ 17355.74671838 .00016923 00000-0 19119-3 0 9994 2 42701 51.6360 176.7516 0003998 292.7987 67.2584 15.62590894 34180 Columbia 1 42702U 98067LK 17355.73910492 .00090913 00000-0 54085-3 0 9998 2 42702 51.6316 169.1335 0004957 253.7722 106.2733 15.77200836 34211 PHOENIX 1 42706U 98067LP 17355.86113048 .00015598 00000-0 17692-3 0 9997 2 42706 51.6362 176.0182 0001306 206.6258 153.4669 15.62562931 34122 X-CubeSat 1 42707U 98067LQ 17355.71759660 .00018515 00000-0 20441-3 0 9996 2 42707 51.6344 176.5415 0001516 210.3798 149.7109 15.63115598 34098 qbee 1 42708U 98067LR 17355.73143891 .00017255 00000-0 19300-3 0 9994 2 42708 51.6357 176.6387 0001515 210.8354 149.2551 15.62836516 34055 ZA-AeroSat 1 42713U 98067LU 17355.75862458 .00014424 00000-0 17070-3 0 9996 2 42713 51.6356 177.5798 0002662 205.7126 154.3736 15.61530995 33759 LINK 1 42714U 98067LV 17355.78262950 .00028191 00000-0 28447-3 0 9997 2 42714 51.6338 175.4673 0003166 206.5967 153.4866 15.65123872 33896 UPSat 1 42716U 98067LX 17355.72385681 .00023018 00000-0 24031-3 0 9998 2 42716 51.6358 175.8455 0002506 283.0188 77.0527 15.64388474 33901 SpaceCube 1 42717U 98067LY 17355.74951392 .00016795 00000-0 18880-3 0 9998 2 42717 51.6355 176.7652 0002529 288.3889 71.6831 15.62729318 33136 Hoopoe 1 42718U 98067LZ 17355.76765550 .00019701 00000-0 21318-3 0 9990 2 42718 51.6360 176.1378 0002565 283.1307 76.9401 15.63584073 33140 Challenger 1 42721U 98067MA 17355.72027729 .00031704 00000-0 30179-3 0 9991 2 42721 51.6343 175.0482 0005234 264.6998 95.3401 15.66513531 32851 NJUST-1 1 42722U 98067MB 17355.80128185 .00013345 00000-0 16125-3 0 9995 2 42722 51.6365 177.8637 0005612 278.5806 81.4551 15.61055592 32822 UNSW-EC0 1 42723U 98067MC 17355.73867302 .00021510 00000-0 23213-3 0 9998 2 42723 51.6367 176.7007 0005208 271.1423 88.8975 15.63580275 32812 DUTHsat 1 42724U 98067MD 17355.75181315 .00029415 00000-0 28644-3 0 9999 2 42724 51.6352 175.2749 0004443 264.8197 95.2291 15.65990131 32755 LO-90 1 42725U 98067ME 17355.76826232 .00015773 00000-0 18313-3 0 9999 2 42725 51.6362 177.6455 0004591 276.1674 83.8797 15.61940907 32720 nSIGHT1 1 42726U 98067MF 17355.81176821 .00008262 00000-0 11199-3 0 9998 2 42726 51.6375 179.4465 0005076 287.3576 72.6861 15.58619947 32710 QBITO 1 42728U 98067MH 17355.71680792 .00017584 00000-0 19795-3 0 9993 2 42728 51.6377 177.3209 0002177 269.0128 91.0617 15.62654734 32538 Aalto-2 1 42729U 98067MJ 17355.77843118 .00018678 00000-0 20923-3 0 9993 2 42729 51.6364 176.9660 0002211 266.8805 93.1937 15.62734004 32556 SUSat 1 42730U 98067MK 17355.73770458 .00016499 00000-0 18867-3 0 9990 2 42730 51.6357 177.4377 0002327 266.9468 93.1259 15.62302324 32536 i-INSPIRE II 1 42731U 98067ML 17355.71962016 .00023906 00000-0 25445-3 0 9993 2 42731 51.6349 176.5474 0006615 223.9285 136.1184 15.63853189 32592 PolyITAN-2-SAU 1 42732U 98067MM 17355.76666407 .00018203 00000-0 20248-3 0 9994 2 42732 51.6358 176.8674 0006653 224.6800 135.3659 15.62918105 32598 SNUSAT-1 1 42733U 98067MN 17355.73877676 .00017561 00000-0 20049-3 0 9999 2 42733 51.6360 177.4359 0006599 227.2590 132.7849 15.62274617 32587 ExAlta-1 1 42734U 98067MP 17355.72530124 .00023489 00000-0 25018-3 0 9990 2 42734 51.6348 176.5873 0007255 249.3305 110.6912 15.63842158 32548 Aoxiang-1 1 42735U 98067MQ 17355.79144494 .00013759 00000-0 16509-3 0 9993 2 42735 51.6356 177.7901 0006144 275.3792 84.6501 15.61204405 33953 BeEagleSat 1 42736U 98067MR 17355.76636323 .00015655 00000-0 18308-3 0 9994 2 42736 51.6355 177.6217 0006022 272.6543 87.3761 15.61752102 32646 Atlantis 1 42737U 98067MS 17355.73985811 .00069013 00000-0 47932-3 0 9993 2 42737 51.6312 171.3859 0006252 251.7792 108.2527 15.73753255 32615 CAS-4B 1 42759U 17034B 17355.82923848 .00000460 00000-0 42080-4 0 9995 2 42759 43.0196 336.8147 0007182 73.1928 357.2493 15.09144929 28650 CAS-4A 1 42761U 17034D 17355.81954847 .00000503 00000-0 44680-4 0 9996 2 42761 43.0198 336.7477 0007693 73.2639 355.3922 15.09220619 28643 UCLSat 1 42765U 17036A 17353.61250999 .00001667 00000-0 77392-4 0 9993 2 42765 097.4272 051.1507 0011630 353.8472 006.2619 15.21359124027993 NIUSat 1 42766U 17036B 17355.74038305 .00001210 00000-0 59240-4 0 9991 2 42766 97.4270 52.8987 0015223 329.6831 30.3522 15.20001173 27576 LituanicaSAT 2 1 42768U 17036D 17355.83373024 .00002420 00000-0 11324-3 0 9997 2 42768 97.4271 53.0794 0015117 332.3189 27.7240 15.20611783 27602 Aalto 1 1 42775U 17036L 17355.81654740 .00001021 00000-0 49921-4 0 9991 2 42775 97.4266 53.0967 0013437 331.0953 28.9537 15.20417168 27540 URSA MAIOR 1 42776U 17036M 17354.75810266 .00001095 00000-0 53233-4 0 9993 2 42776 97.4272 52.0739 0013394 335.2329 24.8262 15.20475600 27386 Max Valier Sat 1 42778U 17036P 17355.76262220 .00001187 00000-0 56708-4 0 9990 2 42778 97.4289 53.2138 0011961 337.8420 22.2297 15.20922990 27536 Pegasus 1 42784U 17036V 17355.60259702 .00001413 00000-0 66364-4 0 9992 2 42784 97.4270 53.0803 0011976 346.2855 13.8054 15.21204013 27517 NUDATSat 1 42787U 17036Y 17354.85281021 .00002159 00000-0 98678-4 0 9991 2 42787 097.4273 052.4029 0011577 349.3854 010.7136 15.21581333027246 SUCHAI 1 1 42788U 17036Z 17355.38933817 .00001653 00000-0 76699-4 0 9995 2 42788 97.4271 52.9050 0011631 347.2896 12.8044 15.21398179 27557 SKCUBE 1 42789U 17036AA 17354.86031735 .00001605 00000-0 74584-4 0 9994 2 42789 097.4270 052.3873 0011503 349.3647 010.7343 15.21394720027398 VZLUSAT 1 1 42790U 17036AB 17354.84538013 .00002070 00000-0 94663-4 0 9992 2 42790 097.4268 052.4037 0011143 350.0689 010.0325 15.21615857027395 VENTA 1 1 42791U 17036AC 17354.71777055 .00001594 00000-0 73912-4 0 9994 2 42791 097.4270 052.2708 0011169 350.8400 009.2630 15.21466252027368 Robusta 1B 1 42792U 17036AD 17355.70003322 .00001546 00000-0 71650-4 0 9998 2 42792 97.4267 53.2449 0011016 347.7779 12.3188 15.21530536 27532 D-SAT 1 42794U 17036AF 17355.71448981 .00000554 00000-0 53662-4 0 9996 2 42794 97.6186 51.8285 0128103 152.0501 208.7677 14.90742777 27287 BIRD-J 1 42820U 98067MU 17355.74205231 .00014856 00000-0 17917-3 0 9993 2 42820 51.6355 178.9595 0003511 201.3151 158.7697 15.61005975 26088 BIRD-G 1 42821U 98067MV 17355.75409172 .00014013 00000-0 17078-3 0 9998 2 42821 51.6354 179.0402 0003423 204.1018 155.9816 15.60786600 26062 BIRD-M 1 42822U 98067MW 17354.85611617 .00015636 00000-0 18947-3 0 9996 2 42822 51.6354 183.5444 0003459 201.9236 158.1610 15.60834396 25922 BIRD-B 1 42823U 98067MX 17355.75420390 .00014624 00000-0 17731-3 0 9999 2 42823 51.6363 179.0490 0005863 232.9964 127.0493 15.60871745 26066 BIRD-N 1 42824U 98067MY 17355.69814112 .00014094 00000-0 17181-3 0 9992 2 42824 51.6368 179.4295 0005732 233.5712 126.4753 15.60766417 26041 TechnoSat 1 42829U 17042E 17355.76343199 .00000290 00000-0 34961-4 0 9990 2 42829 97.6081 259.6561 0015728 71.3412 288.9513 14.90741241 23906 Mayak 1 42830U 17042F 17355.81505531 .00001039 00000-0 11024-3 0 9994 2 42830 97.6089 259.7536 0015904 68.2745 292.0165 14.91025833 23901 OBJECT MZ 1 42910U 98067MZ 17355.74627826 .00011151 00000-0 14545-3 0 9990 2 42910 51.6352 180.4771 0006281 257.9049 102.1240 15.59227537 19658 OBJECT NA 1 42911U 98067NA 17355.80076971 .00013402 00000-0 17138-3 0 9999 2 42911 51.6363 180.1116 0005939 251.9126 108.1220 15.59550517 19640 OBJECT NB 1 42912U 98067NB 17355.81939325 .00012494 00000-0 16205-3 0 9996 2 42912 51.6355 180.2025 0005128 264.6777 95.3631 15.59250700 19661 OBJECT NC 1 42913U 98067NC 17355.78488713 .00022485 00000-0 26013-3 0 9992 2 42913 51.6352 179.2373 0004032 265.0111 95.0423 15.61759695 19636 OBJECT ND 1 42914U 98067ND 17354.86865692 .00012869 00000-0 16847-3 0 9995 2 42914 51.6363 185.1322 0005150 254.6472 105.3951 15.58971332 19502 QIKCOM-1 1 42983U 98067NF 17355.79266072 .00003640 00000-0 60388-4 0 9998 2 42983 51.6399 182.8440 0003432 248.6728 212.4965 15.54969263 8600 AO-91 1 43017U 17073E 17355.29034456 .00000494 00000-0 43924-4 0 9990 2 43017 97.6946 289.0048 0261752 130.4740 231.9611 14.77805186 4836 EcAMSat 1 43019U 98067NG 17355.77824788 .00004584 00000-0 73721-4 0 9994 2 43019 51.6381 182.9633 0005003 225.7309 134.3272 15.55155631 90920 /EX